Red Oak
Tuesday 9:55 PM
Temperature59° (88°/48°)
Dew Point37°
Relative Humidity44
%
Visibility10
mi
Pressure1007.1
mb
Wind Direction
Wind SpeedCalm
Precipitation Today0.00"

Last 30 Observations

Time PresWx Temp DP Feels RH% Vsby Pressure Ceiling Direction Speed 1h Precip
9:35 PM 61° 37° 42
%
10
mi
1006.8
mb
Calm 0.00"
9:15 PM 61° 37° 42
%
10
mi
1006.4
mb
Calm 0.00"
8:55 PM 72° 34° 25
%
10
mi
1006.1
mb
NNW
340°
7
mph
0.00"
8:35 PM 68° 34° 28
%
10
mi
1005.8
mb
NNW
330°
8
mph
0.00"
8:15 PM 68° 36° 30
%
10
mi
1005.8
mb
NNW
330°
7
mph
0.00"
7:55 PM 73° 34° 23
%
10
mi
1005.4
mb
NW
320°
7
mph
0.00"
7:35 PM 75° 34° 22
%
10
mi
1005.4
mb
NW
320°
8
mph
0.00"
7:15 PM 79° 32° 18
%
10
mi
1005.1
mb
WNW
300°
9
mph
0.00"
6:55 PM 81° 32° 17
%
10
mi
1004.8
mb
WNW
300°
9
mph
0.00"
6:35 PM 82° 32° 16
%
10
mi
1004.8
mb
NW
310°
14
mph
0.00"
6:15 PM 84° 32° 15
%
10
mi
1004.8
mb
WNW
290°
11
mph
0.00"
5:55 PM 86° 32° 14
%
10
mi
1004.4
mb
W
280°
15
mph
0.00"
5:35 PM 86° 32° 14
%
10
mi
1004.1
mb
W
280°
16
mph
0.00"
5:15 PM 86° 32° 14
%
10
mi
1004.1
mb
W
280°
16
mph
0.00"
4:55 PM 88° 34° 15
%
10
mi
1004.1
mb
W
280°
16
mph
(G23)
0.00"
4:35 PM 86° 37° 18
%
10
mi
1004.1
mb
WSW
250°
20
mph
(G25)
0.00"
4:15 PM 86° 41° 21
%
10
mi
1004.1
mb
WNW
290°
13
mph
0.00"
3:55 PM 86° 41° 21
%
10
mi
1004.4
mb
W
260°
14
mph
(G20)
0.00"
3:35 PM 86° 41° 21
%
10
mi
1004.4
mb
WNW
290°
14
mph
(G21)
0.00"
3:15 PM 84° 48° 29
%
10
mi
1005.1
mb
W
260°
10
mph
0.00"
2:55 PM 82° 50° 32
%
10
mi
1005.1
mb
WSW
240°
8
mph
(G16)
0.00"
2:35 PM 81° 54° 39
%
10
mi
1005.4
mb
SW
230°
9
mph
0.00"
2:15 PM 81° 54° 39
%
10
mi
1005.8
mb
WSW
250°
9
mph
0.00"
1:55 PM 79° 57° 48
%
10
mi
1005.8
mb
WSW
240°
9
mph
0.00"
1:35 PM 77° 57° 50
%
10
mi
1006.1
mb
SSW
210°
9
mph
0.00"
1:15 PM 75° 57° 54
%
10
mi
1006.4
mb
SW
230°
7
mph
0.00"
12:55 PM 73° 57° 57
%
10
mi
1006.4
mb
SW
220°
9
mph
0.00"
12:35 PM 72° 59° 65
%
10
mi
1006.8
mb
SW
230°
7
mph
0.00"
12:15 PM 70° 61° 73
%
10
mi
1007.1
mb
SW
230°
9
mph
0.00"
11:55 AM 68° 61° 78
%
10
mi
1007.1
mb
1,500
ft
0.00"